GW3043 Weather Reports


time (UTC)temp
F
wind
direction
speed
knots
gust
knots
rain 1hr
in
rain 24hr
in
rain mn
in
humidity
%
barometer
mb
20260504174549 69 98 0.9 7.8 0.00 0.00 0.00 34 1008.2
20260504173057 70 101 0.9 8.7 0.00 0.00 0.00 34 1008.2
20260504171547 70 169 2.6 6.1 0.00 0.00 0.00 32 1008.1
20260504081553 44 0 0.0 1.7 0.00 0.00 0.00 63 1010.7
20260504070111 45 0 0.0 1.7 0.00 0.00 0.00 61 1010.4
20260504044550 45 261 0.0 2.6 0.00 0.00 0.00 58 1011.1
20260504043058 45 0 0.0 1.7 0.00 0.00 0.00 57 1011.1
20260504041547 46 0 0.0 2.6 0.00 0.00 0.00 55 1011.1
20260504040120 45 261 0.0 1.7 0.00 0.00 0.00 55 1011.0
20260504034547 45 261 0.0 2.6 0.00 0.00 0.00 56 1010.9
20260504033050 45 0 0.0 1.7 0.00 0.00 0.00 55 1010.9
20260504031556 45 0 0.0 0.9 0.00 0.00 0.00 53 1010.6
20260504030048 45 0 0.0 0.9 0.00 0.00 0.00 52 1010.7
20260504024551 46 0 0.0 0.9 0.00 0.00 0.00 50 1010.7
20260504023052 47 0 0.0 2.6 0.00 0.00 0.00 47 1010.7
20260504021552 47 0 0.0 2.6 0.00 0.00 0.00 45 1010.6
20260504020107 47 0 0.0 1.7 0.00 0.00 0.00 44 1010.5
20260504014552 47 0 0.0 1.7 0.00 0.00 0.00 44 1010.4
20260504013046 48 0 0.0 2.6 0.00 0.00 0.00 44 1010.2
20260504011549 48 0 0.0 2.6 0.00 0.00 0.00 42 1010.1
20260504010053 47 0 0.0 2.6 0.00 0.00 0.00 45 1009.8
20260504004549 47 0 0.0 1.7 0.00 0.00 0.00 48 1009.5
20260504003054 47 0 0.0 1.7 0.00 0.00 0.00 49 1009.4
20260504001552 47 0 0.0 2.6 0.00 0.00 0.00 50 1009.1
20260504000053 48 0 0.0 0.0 0.00 0.00 0.00 46 1009.0
20260503234603 49 0 0.0 0.9 0.00 0.00 0.00 45 1009.0
20260503233051 50 0 0.0 1.7 0.00 0.00 0.00 44 1008.9
20260503231548 50 0 0.0 0.9 0.00 0.00 0.00 43 1008.8
20260503230047 51 0 0.0 2.6 0.00 0.00 0.00 45 1008.8
20260503224543 51 0 0.9 7.0 0.00 0.00 0.00 43 1008.8
20260503223050 51 0 1.7 5.2 0.00 0.00 0.00 43 1008.7
20260503221556 51 155 0.9 5.2 0.00 0.00 0.00 44 1008.7
20260503220051 51 0 0.0 6.1 0.00 0.00 0.00 41 1008.8
20260503214545 52 215 1.7 6.1 0.00 0.00 0.00 42 1008.8
20260503213049 54 140 1.7 7.0 0.00 0.00 0.00 39 1008.8
20260503211548 54 0 0.9 6.1 0.00 0.00 0.00 41 1008.7
20260503210050 54 52 2.6 7.8 0.00 0.00 0.00 40 1008.4
20260503204546 52 172 2.6 7.8 0.00 0.00 0.00 42 1008.3
20260503203057 51 211 2.6 7.8 0.00 0.00 0.00 41 1008.4
20260503201555 51 94 0.9 7.8 0.00 0.00 0.00 42 1008.3
20260503200056 51 79 1.7 7.0 0.00 0.00 0.00 43 1008.3
20260503194600 51 187 2.6 7.0 0.00 0.00 0.00 43 1008.4
20260503193059 50 40 1.7 5.2 0.00 0.00 0.00 44 1008.5
20260503191555 50 42 1.7 5.2 0.00 0.00 0.00 43 1008.6
20260503190054 50 202 1.7 6.1 0.00 0.00 0.00 44 1008.5
20260503184557 50 242 2.6 9.6 0.00 0.00 0.00 44 1008.3
20260503183051 50 265 1.7 7.0 0.00 0.00 0.00 45 1008.3
20260503181557 51 181 2.6 8.7 0.00 0.00 0.00 45 1008.4
20260503180106 51 241 2.6 7.0 0.00 0.00 0.00 44 1008.4